Terminal Aerodrome Forecast
Issued by NWS Charleston, WV

Current Version | Previous Version | Text Only | Print | Product List | Glossary Off
Versions: 1 2 3 4 5 6 7 8 9 10 11 12 13 14 15 16 17 18 19 20 21 22

000
FTUS41 KRLX 231442 AAA
TAFEKN
TAF AMD
KEKN 231442Z 2315/2412 00000KT P6SM SKC
     FM231600 18006KT P6SM SKC
     FM240900 18006KT P6SM BKN080=

USA.gov is the U.S. government's official web portal to all federal, state and local government web resources and services.